Weather History for Nuiqsut, AK

Change the Weather History Date:

Sunday, August 18, 2013

  Actual Average (PAKU) Record (PAKU)
Temperature  
Mean Temperature 40 °F -  
Max Temperature 43 °F 44 °F 75 °F (2004)
Min Temperature 37 °F 36 °F 27 °F (1985)
Degree Days  
Heating Degree Days 26    
Moisture  
Dew Point 39 °F    
Average Humidity 97    
Maximum Humidity 100    
Minimum Humidity 85    
Precipitation  
Precipitation 0.01 in - - ()
Sea Level Pressure  
Sea Level Pressure 29.77 in    
Wind  
Wind Speed 6 mph (North)    
Max Wind Speed 12 mph    
Max Gust Speed -    
Visibility 5 miles    
Events Fog , Rain    
Averages and records for this station are not official NWS values.
T = Trace of Precipitation, MM = Missing Value Source: NWS Daily Summary

Daily Weather History Graph

Daily Weather History Graph

Search for Another Location

Airport:

Trip Planner

Search our weather history database for the weather conditions in past years. The results will help you decide how hot, cold, wet, or windy it might be!

Date:

Astronomy

Aug. 18, 2013 Rise Set
Actual Time 5:15 AM AKDT 10:55 PM AKDT
Civil Twilight 3:15 AM AKDT 12:48 AM AKDT
Nautical Twilight Sun does not rise Sun does not rise
Astronomical Twilight Sun does not rise Sun does not rise
Moon 9:39 PM AKDT (8/18) 1:22 AM AKDT (8/18)
Length of Visible Light 21h 32m
Length of Day
17h 40m
Waxing Gibbous, 93% of the Moon is Illuminated
Aug 18
Waxing Gibbous
Aug 20
Full
Aug 28
Last Quarter
Sep 5
New
Sep 12
First Quarter

Hourly Weather History & Observations

Time (AKDT) Temp. Windchill Dew Point Humidity Pressure Visibility Wind Dir Wind Speed Gust Speed Precip Events Conditions
12:29 AM 39.2 °F 35.0 °F 39.2 °F 100% 29.76 in 0.5 mi NW 5.8 mph - N/A Fog Fog
12:53 AM 39.9 °F 35.1 °F 39.9 °F 100% 29.77 in 1.2 mi NNW 6.9 mph - N/A   Overcast
1:05 AM 39.2 °F 35.0 °F 39.2 °F 100% 29.76 in 3.0 mi NNW 5.8 mph - N/A   Overcast
1:34 AM 39.2 °F 37.0 °F 39.2 °F 100% 29.76 in 2.0 mi NNW 3.5 mph - N/A   Overcast
1:40 AM 39.2 °F 35.0 °F 39.2 °F 100% 29.76 in 0.8 mi NNW 5.8 mph - N/A   Overcast
1:53 AM 39.9 °F 35.8 °F 39.9 °F 100% 29.77 in 0.5 mi NW 5.8 mph - N/A Fog Fog
2:34 AM 39.2 °F 35.0 °F 39.2 °F 100% 29.76 in 2.5 mi NW 5.8 mph - N/A   Overcast
2:41 AM 39.2 °F 35.0 °F 39.2 °F 100% 29.76 in 8.0 mi NNW 5.8 mph - N/A   Overcast
2:45 AM 39.2 °F 35.9 °F 39.2 °F 100% 29.76 in 2.5 mi NNW 4.6 mph - N/A   Overcast
2:48 AM 39.2 °F 35.9 °F 39.2 °F 100% 29.76 in 1.2 mi NNW 4.6 mph - N/A   Overcast
2:53 AM 39.9 °F 35.8 °F 39.9 °F 100% 29.77 in 1.0 mi NW 5.8 mph - N/A   Overcast
3:01 AM 39.2 °F 35.0 °F 39.2 °F 100% 29.76 in 3.0 mi NW 5.8 mph - 0.00 in Rain Light Rain
3:16 AM 39.2 °F 35.9 °F 39.2 °F 100% 29.76 in 2.0 mi NW 4.6 mph - 0.00 in   Overcast
3:23 AM 39.2 °F 35.0 °F 39.2 °F 100% 29.77 in 1.0 mi NW 5.8 mph - 0.00 in   Overcast
3:40 AM 39.2 °F 35.0 °F 39.2 °F 100% 29.76 in 0.8 mi NW 5.8 mph - 0.00 in   Overcast
3:53 AM 39.9 °F 35.8 °F 39.9 °F 100% 29.77 in 1.0 mi NNW 5.8 mph - 0.00 in   Overcast
4:03 AM 39.2 °F 35.0 °F 39.2 °F 100% 29.77 in 2.0 mi NNW 5.8 mph - N/A   Overcast
4:24 AM 39.2 °F 35.0 °F 39.2 °F 100% 29.76 in 1.0 mi NNW 5.8 mph - N/A   Overcast
4:32 AM 39.2 °F 35.0 °F 39.2 °F 100% 29.76 in 0.8 mi NNW 5.8 mph - N/A   Overcast
4:39 AM 39.2 °F 37.0 °F 39.2 °F 100% 29.76 in 1.2 mi NNW 3.5 mph - N/A   Overcast
4:53 AM 39.9 °F 35.8 °F 39.9 °F 100% 29.77 in 4.0 mi North 5.8 mph - N/A   Overcast
5:53 AM 39.0 °F 34.8 °F 39.0 °F 100% 29.77 in 6.0 mi North 5.8 mph - N/A   Overcast
6:04 AM 39.2 °F 35.9 °F 39.2 °F 100% 29.77 in 2.0 mi North 4.6 mph - N/A   Overcast
6:16 AM 39.2 °F 35.0 °F 39.2 °F 100% 29.76 in 8.0 mi North 5.8 mph - N/A   Overcast
6:26 AM 39.2 °F 35.0 °F 39.2 °F 100% 29.77 in 10.0 mi North 5.8 mph - N/A   Overcast
6:46 AM 39.2 °F 35.9 °F 39.2 °F 100% 29.76 in 10.0 mi North 4.6 mph - N/A   Overcast
6:53 AM 39.0 °F 35.7 °F 39.0 °F 100% 29.77 in 10.0 mi North 4.6 mph - N/A   Overcast
7:07 AM 39.2 °F 35.9 °F 39.2 °F 100% 29.76 in 10.0 mi North 4.6 mph - N/A   Overcast
8:43 AM 39.2 °F 35.9 °F 39.2 °F 100% 29.76 in 2.5 mi North 4.6 mph - N/A   Overcast
8:53 AM 39.0 °F 34.8 °F 39.0 °F 100% 29.77 in 2.5 mi North 5.8 mph - N/A   Overcast
9:06 AM 39.2 °F 35.0 °F 39.2 °F 100% 29.77 in 1.5 mi North 5.8 mph - N/A   Overcast
9:27 AM 39.2 °F 35.0 °F 39.2 °F 100% 29.77 in 2.0 mi North 5.8 mph - 0.01 in   Overcast
9:39 AM 39.2 °F 34.2 °F 39.2 °F 100% 29.77 in 4.0 mi North 6.9 mph - 0.01 in   Overcast
9:53 AM 39.9 °F 35.8 °F 39.0 °F 97% 29.77 in 8.0 mi North 5.8 mph - 0.01 in   Overcast
10:05 AM 39.2 °F 35.0 °F 39.2 °F 100% 29.77 in 10.0 mi North 5.8 mph - N/A   Overcast
10:53 AM 39.9 °F 35.8 °F 39.0 °F 97% 29.77 in 8.0 mi North 5.8 mph - N/A   Overcast
11:53 AM 41.0 °F 36.4 °F 39.0 °F 93% 29.77 in 9.0 mi NNE 6.9 mph - N/A   Overcast
12:53 PM 41.0 °F 35.8 °F 39.0 °F 93% 29.77 in 10.0 mi NNE 8.1 mph - N/A   Overcast
1:16 PM 42.8 °F 39.3 °F 39.2 °F 87% 29.77 in 10.0 mi NNE 5.8 mph - N/A   Overcast
1:53 PM 42.1 °F 37.7 °F 37.9 °F 85% 29.78 in 10.0 mi North 6.9 mph - N/A   Overcast
2:53 PM 42.1 °F 37.1 °F 37.9 °F 85% 29.78 in 10.0 mi North 8.1 mph - N/A   Overcast
3:53 PM 42.1 °F 37.1 °F 37.9 °F 85% 29.77 in 10.0 mi NNE 8.1 mph - N/A   Overcast
4:53 PM 42.1 °F 37.1 °F 37.9 °F 85% 29.77 in 10.0 mi North 8.1 mph - N/A   Overcast
5:53 PM 41.0 °F 35.2 °F 37.9 °F 89% 29.78 in 10.0 mi NNE 9.2 mph - N/A   Overcast
6:53 PM 41.0 °F 35.2 °F 37.9 °F 89% 29.78 in 5.0 mi NNE 9.2 mph - N/A   Overcast
7:53 PM 39.9 °F 33.4 °F 37.9 °F 93% 29.78 in 10.0 mi NE 10.4 mph - N/A   Overcast
8:53 PM 39.0 °F 31.8 °F 37.0 °F 93% 29.78 in 10.0 mi NE 11.5 mph - N/A   Overcast
9:53 PM 37.9 °F 32.1 °F 37.9 °F 100% 29.79 in 10.0 mi NE 8.1 mph - N/A   Overcast
10:53 PM 39.0 °F 32.8 °F 37.0 °F 93% 29.79 in 10.0 mi NE 9.2 mph - N/A   Overcast
11:53 PM 37.9 °F 30.9 °F 37.0 °F 97% 29.79 in 10.0 mi NE 10.4 mph - N/A   Overcast